Location: Marcé
(47.5801°N, 0.3280°W)
Time: 08:22:34
(UTC+01:00)

Courier 1B - Pass Details

Date: 04 December 2021
Orbit: 962 x 1209 km, 28.3° (Epoch: 23 January)

Event Time Altitude Azimuth Distance (km) Brightness Sun altitude
Rises 18:19:53 0° 227° (SW) 4,013 12.1 -11.2°
Reaches altitude 10° 18:24:09 10° 206° (SSW) 3,004 10.8 -11.9°
Maximum altitude 18:28:00 15° 174° (S) 2,601 9.9 -12.5°
Drops below altitude 10° 18:31:44 10° 142° (SE) 2,907 9.8 -13.1°
Enters shadow 18:35:21 - 122° (ESE) 3,703 10.2 -13.7°
Sets 18:35:45 0° 120° (ESE) 3,808 - -13.7°
